www.pogodaiklimat.ru

Погода и климат >> Архив погоды >> Мьянма >> Йе


ПОГОДА в Йе

  • Прогноз погоды в Йе
  • Монитор погоды в Йе

АРХИВ ПОГОДЫ в Йе

Время (UTC), дата Ветер
(напр.,м/с)
 
Видим.   Явления Облачность Т
(С)
Тd
(С)
f
(%)
Тe
(С)
Тes
(С)
Комфортность P
(гПа)
Po
(гПа)
Тmin
(С)
Tmax
(С)
R
(мм)
R24
(мм)
S
(см)
09 20.05 ЮЗ 1 5000 м 5/5 200 м
[Cb cap]
+35.5 +29.5 71 +60 +66 опасность
перегрева
1007.2 1006.4
12 20.05 штиль 0 3000 м 5/5 200 м
[Cb cap]
+31.0 +26.7 78 +48 +48 опасность
перегрева
1007.5 1006.7 +37.3
00 21.05 штиль 0 3000 м 6/5 200 м
[Frnb Ac lent]
+27.0 +25.6 92 +40 +40 очень
душно
1009.2 1008.4 +26.2
03 21.05 ЮЗ 1 5000 м гроза без осадков 8/5 200 м
[Cb cap Ac As]
+32.0 +26.5 73 +49 +54 опасность
перегрева
1010.2 1009.4
06 21.05 СВ 1 5000 м {гроза} 8/5 200 м
[Cb cap Ac As]
+31.0 +25.4 72 +45 +53 опасность
перегрева
1009.4 1008.6
09 21.05 СВ 2 5000 м 3/3 200 м
[Frnb]
+35.0 +28.0 67 +56 +62 опасность
перегрева
1007.2 1006.4
12 21.05 штиль 0 3000 м 3/3 200 м
[Frnb]
+30.0 +26.6 82 +46 +46 опасность
перегрева
1007.0 1006.2 +36.8
00 22.05 штиль 0 3000 м гроза без осадков 9/6 200 м
[Cb cap Ac As]
+26.2 +24.6 91 +37 +37 очень
душно
1009.2 1008.4 +25.4
03 22.05 ЮЗ 1 3000 м {гроза} 10/6 200 м
[Cb cap Ac As]
+29.7 +26.6 83 +46 +48 опасность
перегрева
1010.2 1009.4
06 22.05 СЗ 1 5000 м 8/5 200 м
[Cb cap Ac As]
+33.0 +25.8 66 +48 +56 опасность
перегрева
1009.6 1008.8
09 22.05 СВ 1 3000 м 9/6 200 м
[Cb cap Ac As]
+30.0 +25.3 76 +44 +46 опасность
перегрева
1008.1 1007.3
12 22.05 штиль 0 3000 м 8/5 200 м
[Cb cap Ac As]
+28.0 +25.0 84 +40 +40 очень
душно
1008.0 1007.2 +34.8
00 23.05 штиль 0 3000 м 8/5 200 м
[Cb calv Ac lent]
+25.0 +23.3 90 +33 +34 очень
душно
1009.8 1009.0 +24.2
06 23.05 ЮЗ 1 3000 м 9/6 200 м
[Cb cap Ac As]
+29.5 +27.4 89 +48 +52 опасность
перегрева
1010.3 1009.5
09 23.05 ЮЗ 1 3000 м 8/5 200 м
[Cb cap Ac As]
+30.0 +25.3 76 +44 +47 опасность
перегрева
1008.6 1007.8
12 23.05 ЮЗ 1 3000 м 8/5 200 м
[Cb cap Ac As]
+29.0 +24.8 78 +41 +41 опасность
перегрева
1008.9 1008.1 +31.8
00 24.05 В 1 3000 м 8/5 200 м
[Cb cap Ac As]
+25.0 +23.3 90 +33 +34 очень
душно
1009.9 1009.1 +24.0
03 24.05 ЮЗ 1 3000 м 9/6 200 м
[Cb cap Ac As]
+28.0 +25.0 84 +40 +44 очень
душно
1011.6 1010.8
06 24.05 СЗ 1 3000 м слаб. морось 10/6 200 м
[Cb cap Ac As]
+28.0 +25.0 84 +40 +43 очень
душно
1010.5 1009.7
09 24.05 СЗ 1 3000 м {морось} 9/6 200 м
[Cb cap Ac As]
+29.5 +25.9 81 +44 +46 опасность
перегрева
1008.9 1008.1
12 24.05 штиль 0 3000 м 8/5 200 м
[Cb cap Ac As]
+28.0 +25.0 84 +40 +40 очень
душно
1007.7 1006.9 +31.3 0.0
00 25.05 СВ 1 3000 м слаб. морось {дождь} 10/6 200 м
[Cb cap Ac As]
+24.0 +24.0 100 +33 +33 очень
душно
1009.3 1008.5 +23.2 22
03 25.05 В 1 5000 м {морось} 8/5 200 м
[Cb cap Ac As]
+29.2 +23.0 69 +39 +44 очень
душно
1009.3 1008.5
06 25.05 ЮЗ 1 3000 м 8/5 200 м
[Cb cap Ac As]
+31.5 +26.7 76 +49 +56 опасность
перегрева
1008.2 1007.4
09 25.05 СЗ 1 3000 м {гроза} 8/5 200 м
[Cb cap Ac As]
+33.0 +27.5 73 +52 +55 опасность
перегрева
1007.5 1006.7
12 25.05 СВ 1 3000 м 5/5 200 м
[Cb cap]
+29.4 +25.9 81 +44 +44 опасность
перегрева
1006.6 1005.8 +34.8
00 26.05 штиль 0 3000 м гроза без осадков 8/5 200 м
[Cb cap Ac As]
+24.0 +24.0 100 +33 +33 очень
душно
1008.0 1007.2 +23.0 53
03 26.05 СВ 2 3000 м слаб. морось {гроза, дождь} 10/6 200 м
[Cb cap Ac As]
+25.8 +24.6 93 +36 +38 очень
душно
1009.1 1008.3
06 26.05 СВ 2 3000 м {гроза, морось} 9/6 200 м
[Cb cap Ac As]
+28.5 +26.8 91 +45 +49 опасность
перегрева
1009.1 1008.3
09 26.05 СЗ 1 5000 м 5/5 200 м
[Cb cap]
+32.0 +28.1 80 +53 +58 опасность
перегрева
1005.9 1005.1
12 26.05 штиль 0 3000 м 5/5 200 м
[Cb cap]
+29.0 +25.9 83 +43 +43 опасность
перегрева
1006.4 1005.6 +33.8 18
00 27.05 штиль 0 3000 м {гроза, морось} 8/5 200 м
[Cb cap Ac As]
+25.2 +23.3 89 +34 +34 очень
душно
1007.0 1006.2 +24.4 7
03 27.05 штиль 0 3000 м гроза без осадков 10/6 200 м
[Cb cap Ac As]
+28.2 +26.8 92 +44 +46 опасность
перегрева
1008.1 1007.3
06 27.05 ЮЗ 2 3000 м {гроза} 9/6 200 м
[Cb cap Ac As]
+31.5 +28.2 83 +52 +57 опасность
перегрева
1007.2 1006.4

 

Местоположение метеостанции Йе (Мьянма): широта 15.25 долгота 97.87 высота над уровнем моря 7 м.

В архиве по умолчанию представлена погода в Йе за последнюю неделю. Архивные данные за месяц целиком и за предыдущие месяцы, начиная с января 2011 года, Вы можете получить, выбрав интересующий диапазон дат из раскрывающегося списка и нажав кнопку "Ввод!".


*Определитесь, кто Вы:
робот инопланетянин человек

Внимание! Время в таблицах - всемирное. Для получения местного времени необходимо прибавить поправку, которая равна 6.5 ч.

Смотрите также архив погоды в соседних городах и на ближайших метеорологических станциях:

Погода в Тхонг Пха Пхум (Таиланд) (99 км)
Погода в Тавое (Мьянма) (133 км)
Погода в Умпханге (Таиланд) (137 км)
Погода в Моламьяйне (Мьянма) (142 км)
Погода в Пхаане (Мьянма) (168 км)
Погода в Мэй Сот (Таиланд) (174 км)
Погода в Дои Му Со Агромете (Таиланд) (202 км)
Погода в Кампхэнгпхете (Таиланд) (224 км)
Погода в Канчанабури (Таиланд) (225 км)
Погода в Таке (Таиланд) (227 км)

Пояснения к столбцам:

Ветер - указаны скорость ветра в м/с - средняя за 10 мин, порывы в срок и между сроками (в фигурных скобках) и направление, откуда дует ветер: С - северный, СВ - северо-восточный, В - восточный, ЮВ - юго-восточный, Ю - южный, ЮЗ - юго-западный, З - западный, СЗ - северо-западный.
Видимость - горизонтальная дальность видимости в метрах или километрах. При видимости от 1 до 10 км при отсутствии осадков обычно наблюдается дымка, при ухудшении видимости до 1 км и менее - туман. В сухую погоду видимость может ухудшаться дымом, пылью или мглою.
Явления - указаны атмосферные явления, наблюдавшиеся в срок или в последний час перед сроком; фигурными скобками обозначены явления, наблюдавшиеся между сроками (за 1-3 часа до срока); квадратными скобками обозначены град или гололедные отложения с указанием их диаметра в мм.
Облачность - указаны через наклонную черту общая и нижняя облачность в баллах и высота нижней границы облаков в метрах; квадратными скобками обозначены формы облаков: Ci - перистые, Cs - перисто-слоистые, Cc - перисто-кучевые, Ac - высококучевые, As - высокослоистые, Sc - слоисто-кучевые, Ns - слоисто-дождевые, Cu - кучевые, Cb - кучево-дождевые. Подробнее классификацию облаков см. в Атласе облаков (PDF).
T - Температура воздуха - температура, измеренная на высоте 2 м над землей.
Td - Температура точки росы - температура, при понижении до которой содержащийся в воздухе водяной пар достигнет насыщения.
f - Относительная влажность воздуха - влажноcть воздуха, измеренная на высоте 2 м над землей.
Te - Эффективная температура - температура, которую ощущает одетый по сезону человек в тени. Характеристика душности погоды. При расчете учитывается влияние влажности воздуха и скорости ветра на теплоощущения человека.
Tes - Эффективная температура на солнце - температура, которую ощущает человек, с поправкой на солнечный нагрев. Характеристика знойности погоды. Зависит от высоты солнца над горизонтом, облачности и скорости ветра. Ночью, в пасмурную погоду, а также при ветре 12 м/с и более поправка равна нулю.
P - Атмосферное давление - приведенное к уровню моря атмосферное давление.
Po - Атмосферное давление - измеренное на уровне метеостанции атмосферное давление.
Tmin - Минимальная температура - минимум температуры воздуха на высоте 2 м над землей.
Tmax - Максимальная температура - максимум температуры воздуха на высоте 2 м над землей.
R - Количество осадков - Количество выпавших осадков за период времени, мм. При наведении курсора мыши на число - период времени, за который выпало указанное количество осадков.
R24 - Количество осадков - Количество выпавших осадков за 24 часа, мм.
S - Снежный покров - Высота снежного покрова, см. При наведении курсора мыши на число - состояние снежного покрова и степень покрытия местности в баллах.